Terminal Aerodrome Forecast
Issued by NWS

Current Version | Previous Version | Graphics & Text | Print | Product List | Glossary On
Versions: 1 2 3 4 5 6 7 8 9 10 11 12 13 14 15 16
000
FTUS41 KPBZ 301506 AAA
TAFMGW
TAF AMD
KMGW 301506Z 3015/3112 17005KT P6SM SCT100
     FM301900 25008KT P6SM BKN050
     FM310300 VRB03KT P6SM SCT050=

USA.gov is the U.S. government's official web portal to all federal, state and local government web resources and services.